[[{"header":{"parameterUnit":"m.s-1","parameterCategory":1,"la1":30.2991,"la2":30.254,"lo1":-89.0895,"lo2":-89.0444,"dy":0.0017,"dx":0.0017,"nx":28,"ny":28,"refTime":"2023-10-13T03:00:00:Z","depth":0,"parameterNumber":2,"parameterNumberName":"U-component_of_WINDS"},"data":[0,0,0,0,0,0,0,0,0,0,0,0,0,0,0,0,0,0,0,0,0,0,0,0,0,0,0,0,0,0,0,0,0,0,0,0,0,0,0,0,0,0,0,0,0,0,0,0,0,0,0,0,0,0,0,0,0,0,4.2849,4.285,0,4.2911,4.2911,4.2912,4.2848,4.2845,4.2843,4.2841,4.2902,4.2906,4.291,0,0,0,0,0,0,0,0,0,0,0,0,0,4.2678,4.2681,4.2849,4.285,4.2851,4.2911,4.2911,4.2912,4.2848,4.2845,4.2842,4.2839,4.2901,4.2906,4.291,0,0,0,0,0,0,0,0,0,0,0,0,0,4.2747,4.2683,4.2849,4.2826,4.2825,4.291,4.2911,4.2912,4.2849,4.2845,4.2842,4.2838,4.29,4.2905,4.2911,4.3022,0,0,4.2929,4.2932,0,0,0,0,0,0,0,0,4.2743,4.2753,4.2829,4.2828,4.2826,4.2868,4.2873,4.2949,4.285,4.284,4.2841,4.2836,4.2894,4.29,4.292,4.3025,4.3028,4.293,4.2933,4.2936,4.2938,0,0,0,0,0,0,0,4.2739,4.275,4.2873,4.283,4.2829,4.2813,4.2819,4.2888,4.2887,4.284,4.2836,4.2844,4.2892,4.2914,4.2921,4.3028,4.293,4.2935,4.2939,4.2941,4.3232,4.3236,0,0,0,0,0,0,4.2736,4.2747,4.2871,4.2875,4.2775,4.2819,4.2826,4.2858,4.2886,4.2887,4.2847,4.2841,4.2906,4.2914,4.2922,4.3057,4.2936,4.2941,4.2945,4.3228,4.3233,4.3238,0,0,0,0,0,0,4.2733,4.2748,4.2869,4.281,4.2824,4.2826,4.2863,4.2861,4.2883,4.2891,4.2891,4.2869,4.2903,4.2914,4.2999,4.3058,4.2944,4.2949,4.3223,4.323,4.3235,4.3325,0,0,0,0,0,0,4.2728,4.2747,4.2789,4.2811,4.2828,4.2944,4.2867,4.2865,4.2893,4.2886,4.2912,4.2912,4.2901,4.299,4.3005,4.3064,4.2954,4.3218,4.3226,4.3233,4.3317,4.3334,4.3348,0,0,0,0,0,4.2722,4.281,4.2791,4.2807,4.288,4.2947,4.2957,4.2942,4.2898,4.2941,4.2947,4.2912,4.3049,4.3,4.3015,4.3077,4.3214,4.3224,4.3233,4.331,4.333,4.3348,0,0,0,0,0,0,4.2793,4.2813,4.2792,4.289,4.2918,4.2937,4.2989,4.2964,4.3004,4.2995,4.2975,4.2982,4.3072,4.3083,4.3027,4.3188,4.3125,4.3138,4.3178,4.3197,4.3213,4.3209,4.2959,0,0,0,0,0,4.2821,4.2874,4.2888,4.2973,4.2989,4.2987,4.3016,4.3003,4.303,4.3042,4.3053,4.3082,4.3132,4.3165,4.3211,4.3318,4.3324,4.3369,4.3385,4.3397,4.3409,4.347,4.3491,4.3269,4.3269,4.3268,0,0,4.2877,4.2894,4.2929,4.2988,4.3008,4.3065,4.2997,4.3059,4.3101,4.3051,4.3132,4.3143,4.3173,4.3271,4.3314,4.3282,4.3472,4.3409,4.342,4.3424,4.3482,4.3503,4.3522,4.3275,4.3274,4.3273,0,0,4.3009,4.3027,4.3101,4.3124,4.3156,4.3155,4.3173,4.3197,4.3202,4.3284,4.3248,4.3298,4.3384,4.3408,4.3432,4.3578,4.3548,4.3593,4.3675,4.3735,4.3752,4.3768,4.3822,4.3842,4.3605,4.3605,4.3605,0,4.3075,4.3159,4.3143,4.3209,4.3237,4.3196,4.3272,4.3294,4.3339,4.336,4.3324,4.3434,4.3451,4.3555,4.3592,4.3611,4.3633,4.359,4.3751,4.3766,4.3781,4.3833,4.3853,4.3611,4.361,4.3609,4.3609,0,4.324,4.3299,4.3355,4.3402,4.3437,4.3507,4.3503,4.354,4.3525,4.3528,4.3614,4.3634,4.3685,4.3708,4.3693,4.3812,4.3792,4.3754,4.369,4.3808,4.3856,4.3876,4.3618,4.3616,4.3615,4.3614,0,0,4.3417,4.3456,4.3477,4.35,4.3534,4.3579,4.3649,4.3701,4.3734,4.3767,4.3827,4.3902,4.3869,4.3896,4.3883,4.3936,4.4054,4.3892,4.3892,4.3923,4.419,4.4219,4.4242,4.4034,4.4038,4.4041,4.4188,0,4.3552,4.3674,4.3663,4.3779,4.3835,4.3798,4.386,4.3888,4.3894,4.3943,4.3948,4.4003,4.3954,4.397,4.402,4.4029,4.4107,4.4018,4.4091,4.4094,4.4086,4.4267,4.4297,4.4435,4.4206,4.4209,4.4212,0,4.3725,4.3767,4.3889,4.3918,4.3941,4.3996,4.4044,4.4091,4.4123,4.4124,4.4157,4.4136,4.4208,4.4143,4.4244,4.4183,4.4213,4.4222,4.4227,4.4234,4.4161,4.4281,4.4478,4.45,4.4241,4.4239,4.4237,0,4.3845,4.3931,4.4016,4.4036,4.4071,4.4112,4.4128,4.4157,4.419,4.4232,4.4254,4.4303,4.4331,4.437,4.4365,4.4317,4.4469,4.4402,4.4473,4.4474,4.4507,4.4505,4.4713,4.4523,4.4523,4.4523,4.4522,0,4.3997,4.4074,4.4071,4.4124,4.421,4.4197,4.4283,4.4295,4.4321,4.4377,4.4347,4.44,4.4389,4.4442,4.4438,4.4524,4.4536,4.454,4.4538,4.4543,4.4543,4.4563,4.4554,4.4528,4.4527,4.4526,4.4525,0,4.4145,4.4146,4.4238,4.4265,4.4273,4.4336,4.4359,4.441,4.4414,4.4485,4.4501,4.4508,4.4569,4.4568,4.4636,4.4634,4.4741,4.4727,4.473,4.4728,4.48,4.4794,4.503,4.5061,4.4849,4.4851,4.4853,0,4.4243,4.4302,4.4336,4.4372,4.4392,4.4449,4.4483,4.4474,4.451,4.4554,4.46,4.4659,4.4705,4.4805,4.4817,4.4871,4.4859,4.4938,4.4867,4.4872,4.4864,4.4861,4.4868,4.4953,4.4955,4.4957,4.4958,0,4.4418,4.4417,4.4467,4.4519,4.4561,4.4601,4.4638,4.4669,4.4664,4.4707,4.477,4.4807,4.4879,4.4939,4.4991,4.5009,4.4985,4.4981,4.5001,4.5007,4.5008,4.5011,4.477,4.4976,4.4974,4.4973,4.4972,4.4971,4.4546,4.4598,4.4631,4.4689,4.4717,4.4753,4.4803,4.4815,4.4867,4.4926,4.4917,4.4989,4.5023,4.5091,4.5114,4.517,4.5142,4.517,4.5178,4.5185,4.5195,4.4998,4.5179,4.5179,4.5178,4.5178,4.5177,0,4.4721,4.4742,4.4795,4.4849,4.4896,4.4869,4.491,4.4951,4.5014,4.5048,4.5095,4.517,4.5228,4.5246,4.5303,4.5346,4.5336,4.5361,4.5359,4.5364,4.5215,4.5193,4.5368,4.5368,4.5368,4.5368,4.5368,4.5368,4.4818,4.4905,4.4909,4.501,4.503,4.51,4.5126,4.516,4.5188,4.5273,4.5322,4.5333,4.5362,4.5422,4.5475,4.5479,4.5503,4.5533,4.5533,4.5393,4.5374,4.5356,4.5335,4.5538,4.5538,4.5677,4.5679,4.568]},{"header":{"parameterUnit":"m.s-1","parameterCategory":1,"la1":30.2991,"la2":30.254,"lo1":-89.0895,"lo2":-89.0444,"dy":0.0017,"dx":0.0017,"nx":28,"ny":28,"refTime":"2023-10-13T03:00:00:Z","depth":0,"parameterNumber":3,"parameterNumberName":"V-component_of_WINDS"},"data":[0,0,0,0,0,0,0,0,0,0,0,0,0,0,0,0,0,0,0,0,0,0,0,0,0,0,0,0,0,0,0,0,0,0,0,0,0,0,0,0,0,0,0,0,0,0,0,0,0,0,0,0,0,0,0,0,0,0,-3.955,-3.955,0,-3.9578,-3.9579,-3.9579,-3.957,-3.957,-3.9569,-3.9569,-3.9594,-3.9595,-3.9597,0,0,0,0,0,0,0,0,0,0,0,0,0,-3.9485,-3.9486,-3.955,-3.9551,-3.9551,-3.9578,-3.9579,-3.9579,-3.957,-3.957,-3.9569,-3.9568,-3.9594,-3.9595,-3.9597,0,0,0,0,0,0,0,0,0,0,0,0,0,-3.9513,-3.9487,-3.955,-3.955,-3.955,-3.9578,-3.9579,-3.9579,-3.9571,-3.957,-3.9569,-3.9568,-3.9593,-3.9595,-3.9597,-3.9626,0,0,-3.9603,-3.9603,0,0,0,0,0,0,0,0,-3.9512,-3.9516,-3.955,-3.955,-3.955,-3.957,-3.9565,-3.9595,-3.9571,-3.9563,-3.9569,-3.9568,-3.9587,-3.9589,-3.9596,-3.9627,-3.9628,-3.9603,-3.9604,-3.9605,-3.9605,0,0,0,0,0,0,0,-3.951,-3.9514,-3.9561,-3.955,-3.9551,-3.9547,-3.955,-3.9571,-3.9579,-3.9563,-3.9563,-3.9567,-3.9587,-3.9594,-3.9597,-3.9629,-3.9603,-3.9604,-3.9605,-3.9606,-3.9683,-3.9684,0,0,0,0,0,0,-3.9508,-3.9513,-3.956,-3.9562,-3.9529,-3.9549,-3.9553,-3.9565,-3.9579,-3.958,-3.9567,-3.9566,-3.9592,-3.9595,-3.9598,-3.9631,-3.9605,-3.9606,-3.9607,-3.9682,-3.9683,-3.9684,0,0,0,0,0,0,-3.9507,-3.9512,-3.9559,-3.9537,-3.9543,-3.9551,-3.9565,-3.9566,-3.9573,-3.9582,-3.9583,-3.9574,-3.9591,-3.9595,-3.9619,-3.9632,-3.9607,-3.9609,-3.9681,-3.9682,-3.9684,-3.9699,0,0,0,0,0,0,-3.9505,-3.9512,-3.9524,-3.9538,-3.9544,-3.9581,-3.9566,-3.9567,-3.9577,-3.9576,-3.9588,-3.959,-3.9591,-3.9616,-3.9621,-3.9634,-3.961,-3.968,-3.9681,-3.9683,-3.9697,-3.97,-3.9703,0,0,0,0,0,-3.9502,-3.9527,-3.9524,-3.953,-3.956,-3.9582,-3.9585,-3.9587,-3.9578,-3.9589,-3.9595,-3.9589,-3.963,-3.9619,-3.9624,-3.9638,-3.9679,-3.9681,-3.9683,-3.9696,-3.97,-3.9703,0,0,0,0,0,0,-3.9513,-3.9528,-3.9526,-3.9556,-3.9568,-3.958,-3.9595,-3.9592,-3.9606,-3.9604,-3.9604,-3.9607,-3.9631,-3.9637,-3.9624,-3.9666,-3.9653,-3.9656,-3.9661,-3.9665,-3.9668,-3.9665,-3.9612,0,0,0,0,0,-3.9519,-3.9537,-3.9549,-3.9574,-3.958,-3.9586,-3.9596,-3.9597,-3.9608,-3.9613,-3.962,-3.9631,-3.9646,-3.9656,-3.9671,-3.9698,-3.97,-3.971,-3.9714,-3.9716,-3.9718,-3.9732,-3.9736,-3.9691,-3.9691,-3.9691,0,0,-3.9531,-3.9541,-3.9553,-3.9576,-3.9585,-3.9602,-3.9591,-3.961,-3.9622,-3.9616,-3.9638,-3.9644,-3.9656,-3.9682,-3.9693,-3.9687,-3.9731,-3.9719,-3.9721,-3.9722,-3.9734,-3.9739,-3.9742,-3.9692,-3.9692,-3.9692,0,0,-3.9561,-3.9572,-3.9593,-3.9603,-3.9617,-3.9621,-3.9626,-3.964,-3.9643,-3.9667,-3.9662,-3.9676,-3.9703,-3.9711,-3.9719,-3.9752,-3.9747,-3.9757,-3.9773,-3.9786,-3.9789,-3.9792,-3.9803,-3.9807,-3.9759,-3.9759,-3.9759,0,-3.9574,-3.9601,-3.9604,-3.9623,-3.9633,-3.9629,-3.965,-3.9659,-3.9677,-3.9683,-3.9676,-3.9709,-3.9717,-3.9743,-3.9752,-3.9759,-3.9763,-3.9754,-3.9789,-3.9792,-3.9795,-3.9805,-3.9809,-3.976,-3.976,-3.976,-3.976,0,-3.9614,-3.9633,-3.9648,-3.9667,-3.9678,-3.9698,-3.9703,-3.9714,-3.9714,-3.9718,-3.9741,-3.9751,-3.9766,-3.9773,-3.9773,-3.9799,-3.9795,-3.9789,-3.9776,-3.98,-3.9809,-3.9813,-3.9762,-3.9761,-3.9761,-3.9761,0,0,-3.9651,-3.9671,-3.9677,-3.9684,-3.97,-3.9714,-3.9733,-3.975,-3.9758,-3.9771,-3.9786,-3.9808,-3.9802,-3.9811,-3.9812,-3.9824,-3.9847,-3.9815,-3.9816,-3.982,-3.9875,-3.9879,-3.9883,-3.9845,-3.9845,-3.9846,-3.9874,0,-3.9681,-3.9716,-3.9719,-3.975,-3.9766,-3.9763,-3.9779,-3.979,-3.9795,-3.9808,-3.9813,-3.9828,-3.982,-3.9825,-3.9837,-3.9842,-3.9858,-3.984,-3.9857,-3.9857,-3.9852,-3.9888,-3.9892,-3.9918,-3.9878,-3.9878,-3.9879,0,-3.9721,-3.9736,-3.9768,-3.978,-3.9787,-3.9802,-3.9817,-3.9831,-3.9842,-3.9845,-3.9855,-3.9853,-3.9871,-3.9859,-3.9883,-3.9871,-3.9878,-3.9881,-3.9882,-3.9882,-3.9868,-3.9888,-3.9926,-3.993,-3.9885,-3.9884,-3.9884,0,-3.9742,-3.977,-3.9792,-3.9799,-3.9815,-3.9825,-3.9832,-3.9843,-3.9853,-3.9865,-3.9871,-3.9886,-3.9893,-3.9904,-3.9906,-3.9897,-3.9929,-3.9918,-3.993,-3.993,-3.9936,-3.9935,-3.9975,-3.9944,-3.9943,-3.9943,-3.9943,0,-3.9775,-3.9794,-3.9802,-3.9816,-3.9837,-3.984,-3.9861,-3.9867,-3.9877,-3.989,-3.9889,-3.9901,-3.9904,-3.9917,-3.9919,-3.9938,-3.9942,-3.9943,-3.9943,-3.9942,-3.9942,-3.9946,-3.9943,-3.9944,-3.9944,-3.9944,-3.9944,0,-3.9801,-3.9808,-3.9832,-3.9845,-3.9849,-3.9864,-3.9874,-3.9887,-3.9892,-3.9909,-3.9913,-3.992,-3.9935,-3.9939,-3.9957,-3.9958,-3.9979,-3.9979,-3.9976,-3.9975,-3.9987,-3.9985,-4.0029,-4.0034,-4.0001,-4.0001,-4.0002,0,-3.9821,-3.9836,-3.9851,-3.986,-3.9868,-3.9883,-3.9893,-3.9897,-3.9907,-3.9921,-3.9931,-3.9946,-3.9958,-3.9982,-3.9988,-4.0001,-4.0,-4.0014,-4.0002,-4.0,-3.9998,-3.9996,-3.9997,-4.0016,-4.0016,-4.0017,-4.0017,0,-3.9854,-3.9856,-3.9871,-3.9887,-3.9898,-3.9911,-3.9922,-3.993,-3.9935,-3.9946,-3.9962,-3.9971,-3.999,-4.0004,-4.0018,-4.0023,-4.002,-4.0021,-4.0024,-4.0023,-4.002,-4.002,-3.998,-4.002,-4.0019,-4.0019,-4.0019,-4.0019,-3.9876,-3.9889,-3.9901,-3.9917,-3.9927,-3.9938,-3.995,-3.9956,-3.997,-3.9985,-3.9987,-4.0004,-4.0014,-4.0032,-4.0038,-4.0051,-4.0046,-4.0051,-4.0052,-4.0053,-4.0053,-4.002,-4.0053,-4.0053,-4.0053,-4.0053,-4.0053,0,-3.9908,-3.9916,-3.9931,-3.9947,-3.996,-3.9957,-3.997,-3.998,-3.9995,-4.0005,-4.0018,-4.0035,-4.0049,-4.0056,-4.007,-4.0078,-4.0077,-4.0081,-4.008,-4.0081,-4.0058,-4.0053,-4.0082,-4.0082,-4.0082,-4.0082,-4.0082,-4.0082,-3.9926,-3.9946,-3.995,-3.9975,-3.9983,-4.0,-4.0007,-4.0017,-4.0025,-4.0045,-4.0057,-4.0062,-4.007,-4.0085,-4.0097,-4.0098,-4.0103,-4.0107,-4.0108,-4.0086,-4.0083,-4.008,-4.0075,-4.0109,-4.0109,-4.013,-4.013,-4.0131]}]]